Home   Weather   Theni   Past weeks

Flag for India Past Weather in Theni, Tamil Nadu, India — Yesterday and Last 2 Weeks

Now
84 °F

Scattered clouds.


Feels Like: 87 °F
Forecast: 67 / 90 °F
Wind: 5 mph from South

Location: Coimbatore / Peelamedu

Current Time: Dec 10, 2016 at 2:33:52 pm

Latest Report: Dec 10, 2016 at 2:00 pm


Visibility: 3 mi

Pressure: 29.83 "Hg

Humidity: 55%

Dew Point: 66 °F

Location of TheniLocation

Past Weather in Theni — Graph

°F

Theni Temperature Yesterday

Maximum temperature yesterday: 90 °F (at 2:30 pm)
Minimum temperature yesterday: 72 °F (at 5:30 am)
Average temperature yesterday: 79 °F

High & Low Weather Summary for the Past Weeks

 TemperatureHumidityPressure
High93 °F (Nov 27, 2:30 pm)100% (Dec 2, 7:30 pm)30.09 "Hg (Dec 2, 7:30 pm)
Low64 °F (Dec 1, 8:30 pm)20% (Nov 27, 4:30 pm)29.80 "Hg (Dec 9, 3:00 pm)
Average78 °F66%29.94 "Hg
* Reported Nov 25 1:30 pm — Dec 10 1:30 pm, Theni, Weather by CustomWeather, © 2016

Note: Actual official high and low records may vary slightly from our data, if they occured in-between our weather recording intervals... More about our weather records

Advertising

Theni Weather History for the Previous 24 Hours

Scroll right to see more
 ConditionsComfort  
Time TempWeatherWind HumidityBarometerVisibility
1:30 pm
Sat, Dec 10
84 °FScattered clouds.2 mph55%29.83 "Hg3 mi
12:30 pm82 °FScattered clouds.9 mph58%29.89 "Hg3 mi
12:00 pm82 °FScattered clouds.8 mph62%29.89 "Hg3 mi
11:30 am82 °FScattered clouds.7 mph62%29.92 "Hg3 mi
11:00 am82 °FScattered clouds.5 mph62%29.92 "Hg2 mi
10:30 am81 °FHaze.6 mph66%29.95 "Hg2 mi
9:30 am75 °FFog.No wind78%29.95 "Hg2 mi
9:00 am75 °FFog.No wind78%29.95 "Hg2 mi
8:30 am73 °FFog.No wind83%29.95 "Hg1 mi
8:00 am73 °FFog.No wind89%29.95 "Hg1 mi
7:30 am73 °FFog.No wind89%29.92 "Hg1 mi
7:00 am72 °FFog.No wind94%29.92 "Hg1 mi
6:30 am72 °FFog.No wind94%29.89 "Hg1 mi
6:00 am72 °FFog.No wind94%29.89 "Hg1 mi
5:30 am72 °FFog.No wind94%29.89 "Hg1 mi
5:00 am73 °FFog.No wind94%29.89 "Hg1 mi
4:30 am73 °FFog.No wind94%29.89 "Hg1 mi
4:00 am73 °FFog.No wind94%29.86 "Hg1 mi
3:30 am73 °FFog.No wind94%29.86 "Hg1 mi
3:00 am73 °FFog.No wind94%29.89 "Hg2 mi
2:30 am73 °FFog.No wind94%29.89 "Hg2 mi
1:30 am75 °FFog.No wind83%29.89 "Hg2 mi
1:00 am75 °FFog.No wind83%29.89 "Hg2 mi
12:30 am75 °FFog.No wind83%29.92 "Hg2 mi
12:00 am75 °FFog.No wind83%29.92 "Hg2 mi
11:30 pm
Fri, Dec 9
75 °FFog.5 mph83%29.92 "Hg3 mi
11:00 pm75 °FHaze.6 mph83%29.92 "Hg3 mi
10:30 pm77 °FHaze.5 mph79%29.92 "Hg3 mi
10:00 pm77 °FHaze.6 mph79%29.92 "Hg3 mi
9:30 pm77 °FHaze.6 mph74%29.92 "Hg3 mi
9:00 pm79 °FHaze.3 mph70%29.92 "Hg3 mi
8:30 pm79 °FPassing clouds.3 mph70%29.89 "Hg3 mi
8:00 pm79 °FPassing clouds.3 mph70%29.89 "Hg3 mi
7:30 pm81 °FHaze.3 mph66%29.89 "Hg3 mi
7:00 pm81 °FPassing clouds.3 mph66%29.86 "Hg3 mi
6:30 pm82 °FPassing clouds.3 mph62%29.86 "Hg3 mi
6:00 pm84 °FScattered clouds.5 mph58%29.83 "Hg4 mi
5:30 pm84 °FScattered clouds.7 mph55%29.83 "Hg4 mi
4:30 pm86 °FScattered clouds.9 mph52%29.80 "Hg4 mi
3:30 pm90 °FScattered clouds.7 mph49%29.80 "Hg4 mi
3:00 pm90 °FScattered clouds.6 mph49%29.80 "Hg4 mi
2:30 pm90 °FScattered clouds.5 mph46%29.83 "Hg4 mi
2:00 pm88 °FScattered clouds.No wind49%29.83 "Hg4 mi
Weather by CustomWeather, © 2016

See weather overviewHow to use our weather pages